Regional Weather Roundup
Issued by NWS

Home | Current Version | Previous Version | Graphics & Text | Print | Product List | Glossary On
Versions: 1 2 3 4 5 6 7 8 9 10 11 12 13 14 15 16 17 18 19 20 21 22 23 24 25 26 27 28 29 30 31 32 33 34 35 36 37 38 39 40 41 42 43 44 45 46 47 48 49 50
000
ASUS43 KFSD 310210
RWRSD

WEATHER ROUNDUP FOR SOUTH DAKOTA
NATIONAL WEATHER SERVICE SIOUX FALLS SD
800 PM CST FRI JAN 30 2015

NOTE: "FAIR" INDICATES FEW OR NO CLOUDS BELOW 12,000 FEET WITH NO
SIGNIFICANT WEATHER AND/OR OBSTRUCTIONS TO VISIBILITY.


SDZ001>005-009-010-012>017-310300-
NORTHWEST AND NORTH CENTRAL SOUTH DAKOTA

CITY           SKY/WX    TMP DP  RH WIND       PRES   REMARKS
BUFFALO          N/A     36  26  67 N12       30.09F
FAITH            N/A     34  21  59 N8        30.15S WCI  27
MOBRIDGE       CLEAR     31  24  75 CALM      30.14R
$$

SDZ012>016-024>037-041>051-057-063-072>074-310300-
SOUTHWEST AND SOUTH CENTRAL SOUTH DAKOTA

CITY           SKY/WX    TMP DP  RH WIND       PRES   REMARKS
RAPID CTY ARPT MOCLDY    40  24  53 NW8       30.14S
PIERRE         PTCLDY    30  22  72 N6        30.14R WCI  24
CUSTER         CLOUDY    33  20  58 N3        30.12F
ELLSWORTH AFB  MOCLDY    40  23  50 N10       30.14S
PHILIP         MOCLDY    32  23  69 NW6       30.14R WCI  26
PINE RIDGE     CLOUDY    31  23  72 NE5       30.13S WCI  26
WINNER         FAIR      39  25  57 W3        30.14R
$$

SDZ004>011-016>023-039-040-310300-
NORTHEAST SOUTH DAKOTA

CITY           SKY/WX    TMP DP  RH WIND       PRES   REMARKS
ABERDEEN       CLEAR     28  27  96 W5        30.17R WCI  23
WATERTOWN      CLEAR     28  24  85 SE5       30.14R WCI  23
SISSETON         N/A     32  28  85 NW3       30.13S
$$

SDZ017-020-022-023-036>040-048>070-310300-
SOUTHEAST SOUTH DAKOTA

CITY           SKY/WX    TMP DP  RH WIND       PRES   REMARKS
SIOUX FALLS    PTCLDY    34  28  79 S10       30.17F WCI  26
HURON          CLEAR     26  23  88 N3        30.15R
CHAMBERLAIN    PTCLDY    31  24  77 CALM      30.13R
MITCHELL       CLEAR     38  28  67 S10       30.14F
YANKTON        CLEAR     37  27  65 S7        30.20S
$$

ABBREVIATIONS USED IN REMARKS
   TC - TEMPERATURE IN CELSIUS
  WCI - WIND CHILL INDEX
   HX - HEAT INDEX
  VSB - VISIBILITY




USA.gov is the U.S. government's official web portal to all federal, state and local government web resources and services.